CFG7HF EDDF-LIEO

Flight info

Callsign CFG7HF
Flight time 1h 43m
Altitude 27000
Route ANEKI2L/18 ANEKI Y163 NATOR/N0454F330 DCT TRA DCT RIPUS DCT GERSA DCT SOSON DCT ODINA DCT KEMMI DCT DEVOX DCT ANAKI DCT TORTU DCT OKROK DCT AJO A9 CORSI
Aircraft A321/M-SDE3GHIJ1LORVWXYZ/LB1D1

Departure

Time 2026-05-06 10:20
Airport Frankfurt Main Airport (EDDF)

Arrival

Time 2026-05-06 12:03
Airport Olbia Costa Smeralda Airport (LIEO)
Time Latitude Longitude Altitude Speed Heading
2026-05-06 09:06 50.04805 8.58465 363 ft 0 kts 160°
2026-05-06 10:14 50.04810 8.58462 365 ft 4 kts 160°
2026-05-06 10:14 50.04836 8.58447 361 ft 4 kts 160°
2026-05-06 10:15 50.04860 8.58431 362 ft 4 kts 144°
2026-05-06 10:15 50.04878 8.58402 361 ft 4 kts 109°
2026-05-06 10:15 50.04879 8.58374 366 ft 0 kts 69°
2026-05-06 10:17 50.04880 8.58377 366 ft 2 kts 69°
2026-05-06 10:17 50.04901 8.58463 363 ft 14 kts 69°
2026-05-06 10:18 50.04939 8.58654 359 ft 16 kts 96°
2026-05-06 10:18 50.04892 8.58687 363 ft 11 kts 165°
2026-05-06 10:18 50.04795 8.58742 367 ft 19 kts 160°
2026-05-06 10:18 50.04669 8.58768 373 ft 18 kts 209°
2026-05-06 10:19 50.04528 8.58646 371 ft 28 kts 211°
2026-05-06 10:19 50.04404 8.58312 370 ft 60 kts 247°
2026-05-06 10:19 50.04164 8.57311 370 ft 134 kts 249°
2026-05-06 10:19 50.03773 8.55673 407 ft 182 kts 248°
2026-05-06 10:20 50.03375 8.53910 1446 ft 168 kts 249°
2026-05-06 10:20 50.02971 8.52149 2200 ft 180 kts 247°
2026-05-06 10:20 50.02268 8.50476 2582 ft 188 kts 223°
2026-05-06 10:20 50.01062 8.49563 2754 ft 203 kts 197°
2026-05-06 10:21 49.99669 8.48959 3072 ft 213 kts 193°
2026-05-06 10:21 49.98204 8.49291 3639 ft 223 kts 152°
2026-05-06 10:21 49.97131 8.51061 4280 ft 230 kts 126°
2026-05-06 10:21 49.96093 8.52912 4846 ft 231 kts 152°
2026-05-06 10:22 49.94538 8.53702 5061 ft 245 kts 176°
2026-05-06 10:22 49.92774 8.53833 5425 ft 260 kts 183°
2026-05-06 10:22 49.90946 8.53770 6065 ft 265 kts 184°
2026-05-06 10:22 49.89093 8.53701 6743 ft 268 kts 183°
2026-05-06 10:23 49.87222 8.53681 7430 ft 270 kts 182°
2026-05-06 10:23 49.85337 8.53717 8133 ft 272 kts 181°
2026-05-06 10:23 49.83433 8.53796 8832 ft 275 kts 181°
2026-05-06 10:23 49.81511 8.53906 9516 ft 278 kts 180°
2026-05-06 10:24 49.79568 8.54034 10058 ft 285 kts 180°
2026-05-06 10:24 49.78215 8.54103 10141 ft 299 kts 184°
2026-05-06 10:24 49.75352 8.53760 10312 ft 325 kts 187°
2026-05-06 10:24 49.73035 8.53451 10451 ft 343 kts 187°
2026-05-06 10:25 49.70625 8.53133 10877 ft 351 kts 187°
2026-05-06 10:25 49.68180 8.52816 11459 ft 354 kts 186°
2026-05-06 10:25 49.66547 8.52604 11865 ft 356 kts 186°
2026-05-06 10:25 49.64071 8.52280 12482 ft 358 kts 186°
2026-05-06 10:26 49.61579 8.51952 13109 ft 360 kts 186°
2026-05-06 10:26 49.59075 8.51620 13708 ft 363 kts 186°
2026-05-06 10:26 49.56550 8.51287 14230 ft 365 kts 186°
2026-05-06 10:26 49.54003 8.50951 14739 ft 368 kts 186°
2026-05-06 10:27 49.51444 8.50617 15241 ft 371 kts 186°
2026-05-06 10:27 49.48858 8.50280 15738 ft 374 kts 186°
2026-05-06 10:27 49.46252 8.49943 16256 ft 377 kts 186°
2026-05-06 10:27 49.43624 8.49604 16738 ft 380 kts 186°
2026-05-06 10:28 49.40980 8.49265 17240 ft 383 kts 185°
2026-05-06 10:28 49.38320 8.48921 17768 ft 386 kts 185°
2026-05-06 10:28 49.35631 8.48568 18226 ft 388 kts 185°
2026-05-06 10:28 49.32930 8.48210 18632 ft 390 kts 186°
2026-05-06 10:29 49.30213 8.47851 19050 ft 392 kts 186°
2026-05-06 10:29 49.27486 8.47487 19460 ft 394 kts 186°
2026-05-06 10:29 49.24746 8.47127 19871 ft 396 kts 186°
2026-05-06 10:29 49.21993 8.46773 20283 ft 399 kts 186°
2026-05-06 10:30 49.19224 8.46405 20754 ft 399 kts 186°
2026-05-06 10:30 49.16455 8.46015 21246 ft 400 kts 186°
2026-05-06 10:30 49.13674 8.45624 21707 ft 402 kts 186°
2026-05-06 10:30 49.10881 8.45235 22150 ft 403 kts 186°
2026-05-06 10:31 49.08077 8.44849 22560 ft 405 kts 186°
2026-05-06 10:31 49.05264 8.44465 22965 ft 407 kts 186°
2026-05-06 10:31 49.02438 8.44084 23360 ft 409 kts 186°
2026-05-06 10:31 48.99599 8.43702 23699 ft 410 kts 186°
2026-05-06 10:32 48.96759 8.43292 24048 ft 411 kts 186°
2026-05-06 10:32 48.93907 8.42855 24404 ft 412 kts 186°
2026-05-06 10:32 48.91048 8.42416 24716 ft 414 kts 186°
2026-05-06 10:32 48.88179 8.41978 25036 ft 415 kts 186°
2026-05-06 10:33 48.85295 8.41541 25347 ft 417 kts 186°
2026-05-06 10:33 48.82405 8.41103 25659 ft 418 kts 186°
2026-05-06 10:33 48.79503 8.40663 25973 ft 420 kts 186°
2026-05-06 10:33 48.76588 8.40223 26269 ft 422 kts 186°
2026-05-06 10:34 48.73660 8.39773 26500 ft 425 kts 186°
2026-05-06 10:34 48.70716 8.39320 26787 ft 426 kts 186°
2026-05-06 10:34 48.67761 8.38870 27081 ft 428 kts 186°
2026-05-06 10:34 48.64790 8.38443 27372 ft 429 kts 185°
2026-05-06 10:35 48.61808 8.38040 27668 ft 431 kts 185°
2026-05-06 10:35 48.58819 8.37649 27962 ft 432 kts 185°
2026-05-06 10:35 48.55828 8.37265 28363 ft 430 kts 185°
2026-05-06 10:35 48.52847 8.36877 28770 ft 428 kts 185°
2026-05-06 10:36 48.49884 8.36484 29162 ft 427 kts 185°
2026-05-06 10:36 48.46930 8.36090 29539 ft 426 kts 185°
2026-05-06 10:36 48.43975 8.35700 29908 ft 425 kts 185°
2026-05-06 10:36 48.41033 8.35312 30239 ft 423 kts 185°
2026-05-06 10:37 48.38101 8.34922 30561 ft 422 kts 186°
2026-05-06 10:37 48.35181 8.34531 30891 ft 421 kts 186°
2026-05-06 10:37 48.32274 8.34143 31228 ft 418 kts 186°
2026-05-06 10:37 48.29380 8.33761 31565 ft 417 kts 186°
2026-05-06 10:38 48.26494 8.33382 31889 ft 415 kts 187°
2026-05-06 10:38 48.23617 8.33005 32212 ft 414 kts 187°
2026-05-06 10:38 48.20757 8.32630 32538 ft 412 kts 187°
2026-05-06 10:38 48.17898 8.32311 32773 ft 413 kts 183°
2026-05-06 10:39 48.12208 8.33275 32832 ft 410 kts 174°
2026-05-06 10:39 48.06590 8.34653 32823 ft 409 kts 174°
2026-05-06 10:40 48.00975 8.36015 32822 ft 408 kts 174°
2026-05-06 10:40 47.95400 8.37349 32825 ft 408 kts 174°
2026-05-06 10:41 47.89790 8.38698 32830 ft 408 kts 175°
2026-05-06 10:41 47.84190 8.40048 32840 ft 407 kts 175°
2026-05-06 10:42 47.78614 8.41387 32838 ft 406 kts 175°
2026-05-06 10:42 47.73046 8.42720 32819 ft 405 kts 175°
2026-05-06 10:43 47.67482 8.44006 32818 ft 403 kts 177°
2026-05-06 10:44 47.59148 8.45255 32831 ft 400 kts 179°
2026-05-06 10:44 47.53608 8.45980 32828 ft 399 kts 179°
2026-05-06 10:45 47.48071 8.46764 32829 ft 399 kts 179°
2026-05-06 10:45 47.42547 8.47581 32829 ft 399 kts 179°
2026-05-06 10:46 47.37025 8.48397 32829 ft 399 kts 179°
2026-05-06 10:46 47.31500 8.49200 32834 ft 399 kts 179°
2026-05-06 10:47 47.25966 8.50005 32837 ft 399 kts 179°
2026-05-06 10:47 47.20455 8.50807 32834 ft 397 kts 179°
2026-05-06 10:48 47.14998 8.51604 32832 ft 396 kts 179°
2026-05-06 10:48 47.09504 8.52407 32832 ft 396 kts 179°
2026-05-06 10:49 47.04017 8.53206 32823 ft 395 kts 179°
2026-05-06 10:49 46.98553 8.53992 32831 ft 396 kts 179°
2026-05-06 10:50 46.93061 8.54778 32832 ft 396 kts 179°
2026-05-06 10:50 46.87579 8.55573 32831 ft 395 kts 179°
2026-05-06 10:51 46.82131 8.56364 32818 ft 395 kts 179°
2026-05-06 10:51 46.76674 8.57144 32820 ft 394 kts 180°
2026-05-06 10:52 46.71205 8.57927 32841 ft 395 kts 180°
2026-05-06 10:52 46.65751 8.58702 32828 ft 393 kts 180°
2026-05-06 10:53 46.60298 8.59464 32832 ft 393 kts 180°
2026-05-06 10:53 46.54846 8.60238 32851 ft 393 kts 180°
2026-05-06 10:54 46.49410 8.61015 32842 ft 392 kts 180°
2026-05-06 10:54 46.43990 8.61776 32848 ft 392 kts 180°
2026-05-06 10:55 46.38546 8.62545 32857 ft 393 kts 180°
2026-05-06 10:55 46.33108 8.63321 32847 ft 392 kts 180°
2026-05-06 10:56 46.27673 8.64093 32859 ft 392 kts 180°
2026-05-06 10:56 46.22260 8.64862 32837 ft 392 kts 180°
2026-05-06 10:57 46.16839 8.65618 32837 ft 391 kts 180°
2026-05-06 10:57 46.11426 8.66363 32841 ft 391 kts 180°
2026-05-06 10:58 46.06045 8.67048 32847 ft 391 kts 181°
2026-05-06 10:58 46.00610 8.67635 32841 ft 391 kts 181°
2026-05-06 10:59 45.95210 8.68224 32839 ft 389 kts 181°
2026-05-06 10:59 45.89818 8.68828 32843 ft 390 kts 181°
2026-05-06 11:00 45.84383 8.69434 32828 ft 391 kts 182°
2026-05-06 11:00 45.78955 8.70044 32848 ft 392 kts 182°
2026-05-06 11:01 45.73523 8.70657 32849 ft 391 kts 181°
2026-05-06 11:01 45.68097 8.71265 32855 ft 391 kts 182°
2026-05-06 11:02 45.62670 8.71867 32844 ft 391 kts 181°
2026-05-06 11:02 45.57263 8.72470 32844 ft 391 kts 181°
2026-05-06 11:03 45.51830 8.73078 32850 ft 391 kts 181°
2026-05-06 11:03 45.46397 8.73673 32852 ft 392 kts 181°
2026-05-06 11:04 45.40962 8.74272 32945 ft 392 kts 182°
2026-05-06 11:04 45.35522 8.74879 32946 ft 392 kts 181°
2026-05-06 11:05 45.30086 8.75483 32960 ft 392 kts 182°
2026-05-06 11:05 45.24636 8.76079 32942 ft 392 kts 182°
2026-05-06 11:06 45.19198 8.76677 32832 ft 392 kts 182°
2026-05-06 11:06 45.13767 8.77275 32836 ft 391 kts 182°
2026-05-06 11:07 45.08340 8.77872 32843 ft 392 kts 182°
2026-05-06 11:07 45.03829 8.78367 32839 ft 391 kts 182°
2026-05-06 11:08 44.98401 8.78946 32845 ft 390 kts 182°
2026-05-06 11:08 44.92992 8.79533 32842 ft 390 kts 182°
2026-05-06 11:09 44.87591 8.80130 32827 ft 389 kts 182°
2026-05-06 11:09 44.82193 8.80720 32818 ft 389 kts 182°
2026-05-06 11:10 44.76937 8.80030 32829 ft 375 kts 201°
2026-05-06 11:10 44.72277 8.76903 32843 ft 370 kts 210°
2026-05-06 11:11 44.67354 8.74651 32845 ft 379 kts 191°
2026-05-06 11:11 44.62032 8.74363 32854 ft 384 kts 188°
2026-05-06 11:12 44.56689 8.74143 32855 ft 384 kts 188°
2026-05-06 11:12 44.51343 8.73915 32868 ft 385 kts 188°
2026-05-06 11:13 44.45992 8.73679 32880 ft 385 kts 188°
2026-05-06 11:13 44.40652 8.73442 32881 ft 384 kts 188°
2026-05-06 11:14 44.35298 8.73209 32880 ft 385 kts 188°
2026-05-06 11:14 44.29940 8.72984 32879 ft 385 kts 188°
2026-05-06 11:15 44.24587 8.72755 32854 ft 385 kts 188°
2026-05-06 11:15 44.19201 8.72846 32861 ft 394 kts 178°
2026-05-06 11:16 44.13793 8.74394 32862 ft 397 kts 176°
2026-05-06 11:16 44.08379 8.75967 32839 ft 398 kts 176°
2026-05-06 11:17 44.02948 8.77528 32844 ft 399 kts 176°
2026-05-06 11:17 43.97504 8.79092 32857 ft 400 kts 175°
2026-05-06 11:18 43.92051 8.80657 32880 ft 400 kts 175°
2026-05-06 11:18 43.88509 8.81675 32835 ft 0 kts 175°
2026-05-06 11:18 43.88010 8.81736 32764 ft 0 kts 179°
2026-05-06 11:19 43.87683 8.81746 32689 ft 397 kts 188°
2026-05-06 11:19 43.84910 8.82173 32290 ft 400 kts 177°
2026-05-06 11:20 43.82169 8.82965 32481 ft 404 kts 174°
2026-05-06 11:20 43.79425 8.83912 32673 ft 407 kts 173°
2026-05-06 11:20 43.76676 8.84892 32869 ft 408 kts 173°
2026-05-06 11:21 43.71162 8.86710 32898 ft 406 kts 175°
2026-05-06 11:21 43.65634 8.88299 32899 ft 406 kts 175°
2026-05-06 11:22 43.60082 8.89827 32905 ft 407 kts 175°
2026-05-06 11:22 43.54514 8.91384 32906 ft 407 kts 175°
2026-05-06 11:23 43.48968 8.92962 32904 ft 407 kts 175°
2026-05-06 11:23 43.43415 8.94544 32887 ft 408 kts 175°
2026-05-06 11:24 43.37848 8.95642 32890 ft 399 kts 186°
2026-05-06 11:24 43.32316 8.95973 32893 ft 412 kts 168°
2026-05-06 11:25 43.26956 8.98764 32875 ft 415 kts 166°
2026-05-06 11:25 43.21529 9.01498 32892 ft 415 kts 167°
2026-05-06 11:26 43.16073 9.04137 32899 ft 416 kts 168°
2026-05-06 11:26 43.10605 9.06774 32906 ft 417 kts 167°
2026-05-06 11:27 43.05139 9.09419 32876 ft 417 kts 167°
2026-05-06 11:27 42.99636 9.12078 32910 ft 420 kts 167°
2026-05-06 11:28 42.94124 9.14755 32915 ft 420 kts 167°
2026-05-06 11:28 42.88618 9.17425 32916 ft 420 kts 167°
2026-05-06 11:29 42.83150 9.20058 32894 ft 420 kts 167°
2026-05-06 11:29 42.77633 9.22708 32902 ft 420 kts 167°
2026-05-06 11:30 42.72115 9.25359 32898 ft 420 kts 167°
2026-05-06 11:30 42.66597 9.28004 32897 ft 421 kts 167°
2026-05-06 11:31 42.61077 9.30650 32886 ft 421 kts 167°
2026-05-06 11:31 42.55557 9.33293 32895 ft 421 kts 167°
2026-05-06 11:32 42.50037 9.35915 32895 ft 420 kts 167°
2026-05-06 11:32 42.44524 9.38535 32900 ft 420 kts 167°
2026-05-06 11:33 42.39003 9.41158 32901 ft 420 kts 167°
2026-05-06 11:33 42.33521 9.43758 32901 ft 420 kts 167°
2026-05-06 11:34 42.27964 9.46385 32879 ft 420 kts 168°
2026-05-06 11:34 42.22484 9.48976 32887 ft 420 kts 168°
2026-05-06 11:35 42.16957 9.51583 32888 ft 421 kts 168°
2026-05-06 11:35 42.11427 9.54179 32894 ft 420 kts 168°
2026-05-06 11:35 42.08653 9.55474 32681 ft 421 kts 168°
2026-05-06 11:36 42.05887 9.56763 32191 ft 422 kts 168°
2026-05-06 11:36 42.03097 9.58061 31352 ft 426 kts 168°
2026-05-06 11:36 42.00286 9.59374 30501 ft 429 kts 168°
2026-05-06 11:36 41.97456 9.60700 29583 ft 433 kts 168°
2026-05-06 11:37 41.94601 9.62039 28657 ft 436 kts 168°
2026-05-06 11:37 41.91736 9.63385 27747 ft 438 kts 167°
2026-05-06 11:37 41.88882 9.64731 27248 ft 431 kts 167°
2026-05-06 11:37 41.86067 9.66056 26646 ft 426 kts 167°
2026-05-06 11:38 41.83273 9.67359 26056 ft 422 kts 168°
2026-05-06 11:38 41.80509 9.68644 25478 ft 418 kts 168°
2026-05-06 11:38 41.77774 9.69916 24898 ft 414 kts 167°
2026-05-06 11:38 41.75066 9.71178 24356 ft 410 kts 167°
2026-05-06 11:39 41.72376 9.72431 23805 ft 407 kts 167°
2026-05-06 11:39 41.69714 9.73667 23214 ft 404 kts 167°
2026-05-06 11:39 41.67075 9.74886 22690 ft 398 kts 167°
2026-05-06 11:39 41.64474 9.76085 22161 ft 392 kts 167°
2026-05-06 11:40 41.61916 9.77266 21675 ft 386 kts 167°
2026-05-06 11:40 41.59394 9.78432 21205 ft 381 kts 167°
2026-05-06 11:40 41.56909 9.79591 20701 ft 377 kts 165°
2026-05-06 11:40 41.54454 9.80985 19714 ft 388 kts 161°
2026-05-06 11:41 41.51969 9.82517 18728 ft 398 kts 159°
2026-05-06 11:41 41.49480 9.84115 17659 ft 407 kts 158°
2026-05-06 11:41 41.46969 9.85767 16540 ft 397 kts 158°
2026-05-06 11:41 41.44486 9.87407 15220 ft 390 kts 158°
2026-05-06 11:42 41.42097 9.88968 13983 ft 384 kts 158°
2026-05-06 11:42 41.39679 9.90528 12646 ft 379 kts 158°
2026-05-06 11:42 41.37325 9.92032 11415 ft 372 kts 158°
2026-05-06 11:42 41.35028 9.93489 10658 ft 354 kts 158°
2026-05-06 11:43 41.32901 9.94844 10429 ft 324 kts 158°
2026-05-06 11:43 41.30992 9.96177 10269 ft 298 kts 148°
2026-05-06 11:43 41.29598 9.98148 9815 ft 293 kts 128°
2026-05-06 11:44 41.27589 10.02722 8657 ft 274 kts 128°
2026-05-06 11:44 41.26374 10.04506 8260 ft 252 kts 149°
2026-05-06 11:44 41.24868 10.05540 7684 ft 239 kts 168°
2026-05-06 11:44 41.23253 10.05825 7075 ft 232 kts 186°
2026-05-06 11:45 41.21677 10.05554 6633 ft 220 kts 191°
2026-05-06 11:45 41.20198 10.05265 6208 ft 211 kts 192°
2026-05-06 11:45 41.18800 10.04752 5659 ft 207 kts 204°
2026-05-06 11:45 41.17530 10.03884 5118 ft 204 kts 215°
2026-05-06 11:46 41.16428 10.02715 4585 ft 202 kts 225°
2026-05-06 11:46 41.15533 10.01302 4092 ft 198 kts 236°
2026-05-06 11:46 41.14818 9.99870 4003 ft 173 kts 236°
2026-05-06 11:46 41.14372 9.98995 4053 ft 175 kts 236°
2026-05-06 11:47 41.13685 9.97657 4019 ft 175 kts 236°
2026-05-06 11:47 41.12997 9.96319 3994 ft 175 kts 236°
2026-05-06 11:47 41.12307 9.94977 3996 ft 177 kts 235°
2026-05-06 11:47 41.11615 9.93633 3995 ft 176 kts 235°
2026-05-06 11:48 41.10919 9.92285 4000 ft 177 kts 235°
2026-05-06 11:48 41.10222 9.90934 3999 ft 178 kts 236°
2026-05-06 11:48 41.09527 9.89589 4015 ft 177 kts 235°
2026-05-06 11:48 41.08829 9.88238 4014 ft 177 kts 235°
2026-05-06 11:49 41.08132 9.86890 4014 ft 178 kts 236°
2026-05-06 11:49 41.07434 9.85541 4005 ft 178 kts 235°
2026-05-06 11:49 41.06736 9.84191 4014 ft 177 kts 236°
2026-05-06 11:49 41.06043 9.82853 4000 ft 176 kts 236°
2026-05-06 11:50 41.05344 9.81502 4013 ft 178 kts 236°
2026-05-06 11:50 41.04644 9.80152 4007 ft 178 kts 236°
2026-05-06 11:50 41.04632 9.80129 4004 ft 178 kts 236°
2026-05-06 11:51 41.04105 9.79111 4013 ft 178 kts 236°
2026-05-06 11:51 41.03403 9.77757 4009 ft 178 kts 236°
2026-05-06 11:51 41.02698 9.76400 4011 ft 179 kts 236°
2026-05-06 11:51 41.01994 9.75043 3871 ft 178 kts 235°
2026-05-06 11:52 41.01296 9.73698 3661 ft 173 kts 235°
2026-05-06 11:52 41.00631 9.72419 3449 ft 165 kts 236°
2026-05-06 11:52 41.00206 9.71599 3304 ft 161 kts 236°
2026-05-06 11:58 41.00070 9.71348 3264 ft 160 kts 233°
2026-05-06 11:58 40.99439 9.70148 3058 ft 159 kts 236°
2026-05-06 11:58 40.98817 9.68938 2847 ft 159 kts 236°
2026-05-06 11:59 40.98195 9.67736 2636 ft 158 kts 236°
2026-05-06 11:59 40.97574 9.66541 2428 ft 158 kts 236°
2026-05-06 11:59 40.96953 9.65348 2215 ft 158 kts 235°
2026-05-06 11:59 40.96326 9.64142 2008 ft 160 kts 236°
2026-05-06 12:00 40.95693 9.62928 1800 ft 161 kts 235°
2026-05-06 12:00 40.95057 9.61706 1576 ft 161 kts 234°
2026-05-06 12:00 40.94422 9.60490 1355 ft 162 kts 234°
2026-05-06 12:00 40.93785 9.59268 1148 ft 161 kts 234°
2026-05-06 12:01 40.93160 9.58070 931 ft 155 kts 235°
2026-05-06 12:01 40.92555 9.56912 711 ft 154 kts 234°
2026-05-06 12:01 40.91948 9.55749 514 ft 155 kts 233°
2026-05-06 12:01 40.91331 9.54568 326 ft 157 kts 234°
2026-05-06 12:02 40.90711 9.53370 85 ft 160 kts 236°
2026-05-06 12:02 40.90102 9.52195 35 ft 143 kts 233°
2026-05-06 12:02 40.89692 9.51437 34 ft 68 kts 236°
2026-05-06 12:02 40.89454 9.50982 33 ft 62 kts 234°
2026-05-06 12:03 40.89314 9.50717 34 ft 18 kts 237°
2026-05-06 12:03 40.89258 9.50584 35 ft 11 kts 278°
2026-05-06 12:03 40.89278 9.50528 34 ft 6 kts 288°
2026-05-06 12:03 40.89293 9.50471 34 ft 7 kts 296°
2026-05-06 12:04 40.89352 9.50436 34 ft 14 kts 20°
2026-05-06 12:04 40.89437 9.50548 34 ft 22 kts 57°
2026-05-06 12:04 40.89541 9.50750 34 ft 31 kts 56°
2026-05-06 12:04 40.89681 9.51023 34 ft 40 kts 56°
2026-05-06 12:05 40.89836 9.51327 34 ft 34 kts 55°
2026-05-06 12:05 40.89949 9.51493 34 ft 13 kts 352°
2026-05-06 12:05 40.90063 9.51514 34 ft 16 kts
2026-05-06 12:05 40.90122 9.51601 34 ft 12 kts 54°
2026-05-06 12:06 40.90175 9.51598 34 ft 2 kts 326°
2026-05-06 12:06 40.90198 9.51576 34 ft 1 kts 324°
2026-05-06 12:06 40.90198 9.51575 34 ft 0 kts 324°